Location: Carrières
(48.9495°N, 2.0407°E)
Time: 12:11:12
(UTC+00:00)

deb Kosmos-2227 - Pass Details

Date: 26 May 2025
Orbit: 823 x 993 km, 71.2° (Epoch: 15 June)

Event Time Altitude Azimuth Distance (km) Brightness Sun altitude
Rises 02:29:52 0° 166° (SSE) 3,589 ? -11.3°
Reaches altitude 10° 02:32:46 10° 153° (SSE) 2,675 ? -11.0°
Maximum altitude 02:37:44 26° 100° (E) 1,831 ? -10.5°
Drops below altitude 10° 02:42:49 10° 48° (NE) 2,752 ? -9.9°
Sets 02:45:50 0° 36° (NE) 3,715 ? -9.6°
